Zurück zum Katalog

CZ-2D R/B

AktivSSO
NORAD 54641·ROCKET BODY·🇨🇳 China

Gestartet Dec 8, 2022 von Taiyuan Satellite Launch Center

Loading…

Nächste Überflüge (nächste 24 Stunden)

TLE

AktuellSource: Space-Track

Epoche: Sep 14, 2026, 19:00 UTC

1 54641U 22165B   26257.79224341  .00000410  00000-0  78416-4 0  9995
2 54641  98.1633 200.4688 0031416 270.1037  89.6568 14.68841338201769

Verfolge CZ-2D R/B in Echtzeit mit AllMySat

Download on the App Store